User: anonymous   Login
Location: Unspecified
(0.0000°N, 0.0000°E)
Time: 01:37:34
(UTC+00:00)
Language:

USA 48 - Orbit

View from above orbital plane
View from above orbital plane
View from above satellite
View from above satellite

Ground track
Ground track

The orbit data is extracted from the following two-line orbital elements,

1 20355U 89090B   17107.82130083 0.00000000  00000-0  00000-0 0    05
2 20355  18.1091  16.1688 0282469  19.1642 341.8894  1.00740573    05
Epoch (UTC): 17 April 2017 19:42:40
Eccentricity: 0.0282469
inclination: 18.1091°
perigee height: 34468 km
apogee height: 36842 km
right ascension of ascending node: 16.1688°
argument of perigee: 19.1642°
revolutions per day: 1.00740573
mean anomaly at epoch: 341.8894°
orbit number at epoch: 0

The dashed part of the orbit path shows where the satellite is in the earth's shadow,  

DLR